Location: *
(50.0228°S, 177.2688°W)
Time: 06:10:21
(UTC+00:00)

Cosmos 2082 Rocket - Pass Details

Date: 07 April 2020
Orbit: 831 x 855 km, 71.0° (Epoch: 02 June)

Event Time Altitude Azimuth Distance (km) Brightness Sun altitude
Rises 08:32:06 0° 215° (SW) 3,432 6.3 -30.4°
Reaches altitude 10° 08:34:46 10° 224° (SW) 2,487 5.5 -30.8°
Maximum altitude 08:39:49 34° 286° (WNW) 1,372 3.5 -31.5°
Enters shadow 08:40:58 31° 309° (NW) 1,447 3.5 -31.6°
